Location: T�bingen+AIT
(48.5342°N, 9.0700°E)
Time: 01:50:10
(UTC+02:00)

SL-08 RB Rocket - Pass Details

Date: 14 September 2017
Orbit: 647 x 685 km, 98.0° (Epoch: 23 September)

Event Time Altitude Azimuth Distance (km) Brightness Sun altitude
Exits shadow 22:02:08 47° 55° (NE) 863 4.1 -23.0°
Drops below altitude 10° 22:06:07 10° 357° (N) 2,061 6.7 -23.6°
Sets 22:08:23 0° 351° (N) 2,978 7.7 -23.9°
